WANGEN Weather Reports


time (UTC)temp
F
wind
direction
speed
knots
gust
knots
rain 1hr
in
rain 24hr
in
rain mn
in
humidity
%
barometer
mb
20260507063211 48 202 7.0 0.0 0.00 0.00 0.06 94 1012.9
20260507060211 48 202 6.1 0.0 0.00 0.00 0.04 94 1012.6
20260507053211 48 243 7.0 0.0 0.00 0.00 0.02 94 1012.3
20260507050213 47 236 4.3 0.0 0.00 0.00 0.01 94 1012.0
20260507043211 47 243 2.6 0.0 0.00 0.00 0.00 94 1011.6
20260507040216 47 212 0.9 0.0 0.00 0.00 0.00 94 1011.3
20260507033211 47 161 0.0 0.0 0.00 0.00 0.00 94 1011.1
20260507030211 47 161 0.0 0.0 0.00 0.00 0.00 95 1011.0
20260507023211 47 231 0.0 0.0 0.00 0.00 0.00 94 1011.0
20260507020211 46 209 0.0 0.0 0.00 0.00 0.00 94 1010.9
20260507013212 46 209 0.0 0.0 0.00 0.00 0.00 94 1010.6
20260507010211 46 209 0.0 0.0 0.00 0.00 0.00 94 1010.6
20260507003209 46 209 0.0 0.0 0.00 0.00 0.00 94 1010.3
20260507000209 46 209 0.0 0.0 0.00 0.00 0.00 93 1010.4
20260506233209 46 209 0.0 0.0 0.00 0.00 0.00 93 1010.4
20260506230209 47 209 0.0 0.0 0.00 0.00 0.00 93 1010.3
20260506223209 48 209 0.0 0.0 0.00 0.00 0.00 92 1010.2
20260506213209 48 209 0.0 0.0 0.00 0.00 0.02 92 1010.1
20260506210210 48 221 0.0 0.0 0.00 0.00 0.02 92 1009.9
20260506203210 49 221 0.0 0.0 0.00 0.00 0.02 91 1009.6
20260506200210 49 227 1.7 0.0 0.00 0.00 0.02 91 1009.6
20260506193215 50 214 3.5 0.0 0.00 0.00 0.02 91 1009.2
20260506190211 50 219 3.5 0.0 0.00 0.00 0.02 91 1008.7
20260506183209 51 261 7.0 0.0 0.00 0.00 0.02 91 1008.2
20260506180216 51 252 6.1 0.0 0.00 0.00 0.02 92 1008.2
20260506173210 51 218 3.5 0.0 0.00 0.00 0.02 92 1008.0
20260506170215 51 220 5.2 0.0 0.00 0.00 0.02 92 1007.6
20260506163210 51 230 2.6 0.0 0.00 0.00 0.02 92 1007.2
20260506160210 51 241 8.7 0.0 0.00 0.00 0.01 92 1007.6
20260506153210 50 269 10.4 0.0 0.00 0.00 0.00 91 1007.2
20260506150210 50 288 13.0 0.0 0.00 0.00 0.00 90 1007.2
20260506143210 52 265 21.7 0.0 0.00 0.00 0.00 82 1006.6
20260506140210 62 301 10.4 0.0 0.00 0.00 0.00 75 1004.7
20260506133211 61 188 7.0 0.0 0.00 0.00 0.00 81 1004.4
20260506130211 58 80 1.7 0.0 0.00 0.00 0.01 87 1004.1
20260506123210 59 193 5.2 0.0 0.00 0.00 0.00 81 1004.7
20260506120210 61 213 7.0 0.0 0.00 0.00 0.00 75 1004.0
20260506113217 62 218 4.3 0.0 0.00 0.00 0.00 70 1004.0
20260506110210 62 282 4.3 0.0 0.00 0.00 0.00 67 1004.3
20260506100213 61 311 7.0 0.0 0.00 0.00 0.00 72 1004.5
20260506093211 58 43 5.2 0.0 0.00 0.00 0.00 77 1004.7
20260506090211 58 279 0.0 0.0 0.00 0.00 0.00 80 1005.0
20260506083211 57 49 0.0 0.0 0.00 0.00 0.00 88 1005.1
20260506080212 54 50 0.0 0.0 0.00 0.00 0.00 93 1005.0
20260506073211 53 32 0.0 0.0 0.00 0.00 0.00 93 1005.1
20260506070212 52 355 3.5 0.0 0.00 0.00 0.00 94 1004.9